KC4LW Weather Reports


Display with metric or nautical units.
time (UTC)temp
F
wind
direction
speed
MPH
gust
MPH
rain 1hr
in
rain 24hr
in
rain mn
in
humidity
%
barometer
mb
20260503001611 62 313 1.0 12.0 0.00 0.46 0.46 95 1011.3
20260503000112 63 291 2.0 8.0 0.00 0.46 0.46 95 1010.9
20260502234603 63 346 2.0 10.0 0.00 0.46 0.46 94 1010.9
20260502233056 65 350 2.0 9.0 0.00 0.46 0.46 94 1010.6
20260502231610 65 317 2.0 9.0 0.00 0.46 0.46 93 1010.0
20260502230057 66 304 3.0 10.0 0.00 0.46 0.46 92 1010.0
20260502224556 67 328 3.0 9.0 0.00 0.46 0.46 91 1009.6
20260502223055 69 352 3.0 7.0 0.00 0.46 0.46 88 1008.8
20260502221553 70 346 1.0 7.0 0.00 0.46 0.46 88 1008.6
20260502220057 70 269 2.0 11.0 0.00 0.46 0.46 88 1008.5
20260502214556 69 329 1.0 6.0 0.00 0.46 0.46 89 1008.5
20260502213105 69 286 1.0 10.0 0.00 0.46 0.46 90 1008.0
20260502211555 69 304 3.0 8.0 0.00 0.46 0.46 91 1008.2
20260502210056 68 321 3.0 10.0 0.00 0.46 0.46 91 1008.2
20260502204616 68 271 5.0 11.0 0.00 0.46 0.46 93 1008.2
20260502203105 67 323 3.0 10.0 0.00 0.46 0.46 94 1008.5
20260502201601 67 279 3.0 7.0 0.00 0.46 0.46 95 1008.5
20260502200053 67 258 4.0 13.0 0.00 0.46 0.46 95 1008.7
20260502194553 68 352 7.0 16.0 0.00 0.46 0.46 94 1008.4
20260502193054 69 290 5.0 12.0 0.00 0.46 0.46 96 1008.1
20260502191552 69 293 2.0 7.0 0.00 0.46 0.46 96 1008.4
20260502190054 69 319 3.0 8.0 0.00 0.46 0.46 97 1008.2
20260502184558 69 275 2.0 8.0 0.00 0.46 0.46 97 1007.8
20260502183052 69 281 3.0 7.0 0.00 0.46 0.46 98 1008.1
20260502181553 68 205 0.0 4.0 0.00 0.46 0.46 98 1007.9
20260502180105 68 297 2.0 9.0 0.07 0.46 0.46 98 1008.4
20260502170103 68 275 5.0 14.0 0.12 0.39 0.39 97 1009.1
20260502163058 71 44 1.0 3.0 0.03 0.29 0.29 98 1008.4
20260502161600 70 205 1.0 4.0 0.01 0.27 0.27 98 1008.7
20260502151558 67 0 0.0 4.0 0.26 0.26 0.26 96 1009.4
20260502140104 69 281 0.0 1.0 0.00 0.00 0.00 92 1009.5
20260502123053 68 0 0.0 2.0 0.00 0.00 0.00 92 1009.2
20260502121555 68 0 0.0 2.0 0.00 0.00 0.00 92 1009.2
20260502114551 68 265 1.0 4.0 0.00 0.00 0.00 93 1009.1
20260502113052 68 0 0.0 2.0 0.00 0.00 0.00 93 1009.0
20260502111613 67 0 0.0 2.0 0.00 0.00 0.00 93 1008.8
20260502110053 67 0 0.0 3.0 0.00 0.00 0.00 93 1008.6
20260502104553 67 289 0.0 2.0 0.00 0.00 0.00 93 1008.3
20260502103102 67 258 1.0 3.0 0.00 0.00 0.00 93 1008.0
20260502101601 67 289 0.0 2.0 0.00 0.00 0.00 93 1007.4
20260502070051 68 0 0.0 1.0 0.00 0.00 0.00 93 1009.5
20260502064601 68 0 0.0 1.0 0.00 0.00 0.00 93 1009.3
20260502063100 68 0 0.0 1.0 0.00 0.00 0.00 92 1009.7
20260502061555 68 0 0.0 0.0 0.00 0.00 0.00 92 1010.0
20260502060051 68 0 0.0 0.0 0.00 0.00 0.00 90 1010.0
20260502054601 69 0 0.0 0.0 0.00 0.00 0.00 89 1010.1
20260502053056 69 0 0.0 0.0 0.00 0.00 0.00 89 1010.1
20260502051553 69 0 0.0 0.0 0.00 0.00 0.00 89 1010.1
20260502050054 70 0 0.0 1.0 0.00 0.00 0.00 88 1010.3
20260502044551 70 0 0.0 0.0 0.00 0.00 0.00 88 1010.5
20260502043106 70 0 0.0 2.0 0.00 0.00 0.00 88 1010.4
20260502041553 70 0 0.0 0.0 0.00 0.00 0.00 87 1010.6
20260502040054 70 0 0.0 1.0 0.00 0.00 0.00 86 1010.7
20260502034553 70 0 0.0 1.0 0.00 0.00 0.00 85 1010.4
20260502033056 70 0 0.0 1.0 0.00 0.00 0.00 85 1010.7
20260502031555 70 0 0.0 3.0 0.00 0.00 0.00 85 1010.2
20260502030056 71 0 1.0 4.0 0.00 0.00 0.00 85 1009.9
20260502024553 71 115 0.0 2.0 0.00 0.00 0.00 84 1010.8
20260502023055 71 83 1.0 3.0 0.00 0.00 0.00 83 1010.9
20260502021553 71 338 0.0 2.0 0.00 0.00 0.00 82 1011.3
20260502020051 71 0 0.0 3.0 0.00 0.00 0.00 82 1011.3
20260502014552 71 82 1.0 4.0 0.00 0.00 0.00 82 1009.9
20260502013051 71 0 1.0 7.0 0.00 0.00 0.00 82 1010.7
20260502011552 71 0 1.0 6.0 0.00 0.00 0.00 83 1010.3
20260502010054 71 185 0.0 4.0 0.00 0.00 0.00 86 1010.7
20260502004607 72 69 1.0 6.0 0.00 0.16 0.00 88 1010.5
20260502003055 73 117 1.0 9.0 0.00 0.16 0.00 88 1010.3